This is the latest recevied weather packets stored in our database for station/object N9PBY-2. If no packets are shown the sender has not sent any weather packets the latest 10 day(s).
| Time | Temp. | Humidity | Pressure | Rain* | Wind** | Luminosity | Snow |
|---|---|---|---|---|---|---|---|
| 1777402206 | 16.11° C | 52% | 1012.5 hPa | 0 mm | - | - | - |
| 1777401607 | 16.67° C | 52% | 1012.4 hPa | 0 mm | - | - | - |
| 1777401006 | 16.11° C | 54% | 1012 hPa | 0 mm | - | - | - |
| 1777400407 | 15° C | 54% | 1012.2 hPa | 0 mm | - | - | - |
| 1777399806 | 15° C | 57% | 1012 hPa | 0 mm | - | - | - |
| 1777399206 | 15° C | 55% | 1011.8 hPa | 0 mm | - | - | - |
| 1777398606 | 15° C | 53% | 1011.9 hPa | 0 mm | - | - | - |
| 1777398007 | 14.44° C | 55% | 1011.8 hPa | 0 mm | - | - | - |
| 1777397407 | 14.44° C | 59% | 1011.7 hPa | 0 mm | - | - | - |
| 1777396807 | 13.89° C | 58% | 1011.9 hPa | 0 mm | - | - | - |
| 1777396207 | 13.89° C | 59% | 1011.9 hPa | 0 mm | - | - | - |
| 1777395606 | 13.33° C | 59% | 1011.9 hPa | 0 mm | - | - | - |
| 1777395007 | 12.78° C | 60% | 1011.8 hPa | 0 mm | - | - | - |
| 1777394407 | 12.78° C | 61% | 1011.4 hPa | 0 mm | - | - | - |
| 1777393806 | 12.22° C | 61% | 1011.4 hPa | 0 mm | - | - | - |
| 1777393206 | 12.22° C | 61% | 1011.3 hPa | 0 mm | - | - | - |
| 1777392607 | 12.22° C | 62% | 1011.3 hPa | 0 mm | - | - | - |
| 1777392006 | 12.22° C | 62% | 1011 hPa | 0 mm | - | - | - |
| 1777391406 | 12.22° C | 63% | 1011.1 hPa | 0 mm | - | - | - |
| 1777390807 | 11.67° C | 63% | 1010.9 hPa | 0 mm | - | - | - |
| 1777390207 | 11.67° C | 64% | 1010.9 hPa | 0 mm | - | - | - |
| 1777389607 | 11.67° C | 64% | 1011.1 hPa | 0 mm | - | - | - |
| 1777389007 | 11.11° C | 63% | 1010.8 hPa | 0 mm | - | - | - |
| 1777388407 | 10.56° C | 67% | 1010.7 hPa | 0 mm | - | - | - |
| 1777387806 | 10° C | 66% | 1010.5 hPa | 0 mm | - | - | - |
* Rain latest hour (hover to see other rain measurements)
** Current wind speed in m/s (hover to see current wind gust speed)